This is the latest recevied weather packets stored in our database for station/object KB7KFC-3. If no packets are shown the sender has not sent any weather packets the latest 10 day(s).
| Time | Temp. | Humidity | Pressure | Rain* | Wind** | Luminosity | Snow |
|---|---|---|---|---|---|---|---|
| 1777738564 | 27.78° C | 27% | 1015.3 hPa | 0 mm | - | - | - |
| 1777738384 | 27.78° C | 27% | 1015 hPa | 0 mm | - | - | - |
| 1777738205 | 27.78° C | 29% | 1015 hPa | 0 mm | - | - | - |
| 1777738025 | 27.78° C | 28% | 1014.9 hPa | 0 mm | - | - | - |
| 1777737845 | 27.78° C | 30% | 1014.9 hPa | 0 mm | - | - | - |
| 1777737665 | 27.22° C | 30% | 1014.9 hPa | 0 mm | - | - | - |
| 1777737484 | 27.22° C | 30% | 1014.8 hPa | 0 mm | - | - | - |
| 1777737305 | 27.22° C | 30% | 1014.8 hPa | 0 mm | - | - | - |
| 1777737124 | 27.22° C | 29% | 1014.8 hPa | 0 mm | - | - | - |
| 1777736944 | 27.22° C | 30% | 1014.8 hPa | 0 mm | - | - | - |
| 1777736765 | 26.67° C | 30% | 1014.8 hPa | 0 mm | - | - | - |
| 1777736585 | 26.67° C | 31% | 1014.8 hPa | 0 mm | - | - | - |
| 1777736406 | 26.67° C | 31% | 1014.7 hPa | 0 mm | - | - | - |
| 1777736223 | 26.67° C | 32% | 1014.7 hPa | 0 mm | - | - | - |
| 1777736044 | 26.67° C | 30% | 1014.8 hPa | 0 mm | - | - | - |
| 1777735864 | 26.67° C | 32% | 1014.7 hPa | 0 mm | - | - | - |
| 1777735684 | 26.11° C | 31% | 1014.7 hPa | 0 mm | - | - | - |
| 1777735505 | 26.11° C | 33% | 1014.6 hPa | 0 mm | - | - | - |
| 1777735325 | 26.11° C | 32% | 1014.7 hPa | 0 mm | - | - | - |
| 1777735145 | 25.56° C | 35% | 1014.6 hPa | 0 mm | - | - | - |
| 1777734964 | 25.56° C | 34% | 1014.5 hPa | 0 mm | - | - | - |
| 1777734785 | 25.56° C | 34% | 1014.6 hPa | 0 mm | - | - | - |
| 1777734605 | 25° C | 34% | 1014.5 hPa | 0 mm | - | - | - |
| 1777734425 | 25° C | 34% | 1014.5 hPa | 0 mm | - | - | - |
| 1777734245 | 25° C | 36% | 1014.5 hPa | 0 mm | - | - | - |
* Rain latest hour (hover to see other rain measurements)
** Current wind speed in m/s (hover to see current wind gust speed)